Regional Weather Roundup
Issued by NWS

Home | Current Version | Previous Version | Text Only | Print | Product List | Glossary On
Versions: 1 2 3 4 5 6 7 8 9 10 11 12 13 14 15 16 17 18 19 20 21 22 23 24 25 26 27 28 29 30 31 32 33 34 35 36 37 38 39 40 41 42 43 44 45 46 47 48 49 50
000
ASUS43 KLMK 040102
RWRKY
KENTUCKY REGIONAL WEATHER ROUNDUP
NATIONAL WEATHER SERVICE LOUISVILLE KY
900 PM EDT MON AUG 03 2015

NOTE "FAIR" INDICATES FEW OR NO CLOUDS BELOW 12,000 FEET
WITH NO SIGNIFICANT WEATHER AND/OR OBSTRUCTIONS TO VISIBILITY.

KYZ001>023-026-027-061>063-070>075-040200-
WESTERN AND SOUTH CENTRAL KENTUCKY

CITY           SKY/WX    TMP DP  RH WIND       PRES   REMARKS
PADUCAH        CLEAR     83  74  74 CALM      29.89R
HENDERSON      CLEAR     82  70  65 W3        29.87R
OWENSBORO      PTCLDY    84  76  77 W3        29.88R HX  92
HOPKINSVILLE   CLEAR     83  74  72 SW5       29.91S HX  90
BOWLING GREEN  PTCLDY    86  71  60 W5        29.90S HX  91
GLASGOW        NOT AVBL
$$

KYZ024-025-028>034-038-045-046-053-040200-
NORTH CENTRAL KENTUCKY

CITY           SKY/WX    TMP DP  RH WIND       PRES   REMARKS
LOUISVILLE/SDF PTCLDY    86  70  58 SW9       29.85S HX  90
LOUISVILLE/LOU PTCLDY    87  68  52 W8        29.86S HX  90
FORT KNOX      NOT AVBL
$$

KYZ035>037-039>044-047>052-055>060-089>105-040200-
NORTHEAST KENTUCKY

CITY           SKY/WX    TMP DP  RH WIND       PRES   REMARKS
LEXINGTON      PTCLDY    81  69  67 SW10      29.86F
COVINGTON      MOCLDY    71  66  84 NE7       29.87S
FRANKFORT      PTCLDY    82  68  62 SW7       29.85F
$$

KYZ054-064>069-076>088-106>120-040200-
SOUTHEAST KENTUCKY

CITY           SKY/WX    TMP DP  RH WIND       PRES   REMARKS
JACKSON        CLEAR     80  69  69 VRB5      29.91F
LONDON         CLEAR     82  67  60 S6        29.92F
SOMERSET       NOT AVBL
MIDDLESBORO    CLEAR     77  71  81 CALM      29.96R
MONTICELLO     CLEAR     81  73  76 CALM      29.95S
$$



USA.gov is the U.S. government's official web portal to all federal, state and local government web resources and services.